Weather History for Akron, OH

Change the Weather History Date:

Saturday, November 9, 2013

  Actual Average (KCAK) Record (KCAK)
Temperature  
Mean Temperature 44 °F 44 °F  
Max Temperature 57 °F 52 °F 75 °F (1975)
Min Temperature 30 °F 36 °F 18 °F (1991)
Degree Days  
Heating Degree Days 22 21  
Month to date heating degree days 177  
Since 1 July heating degree days 732  
Cooling Degree Days 0 0  
Month to date cooling degree days 0  
Year to date cooling degree days 652  
Moisture  
Dew Point 30 °F    
Average Humidity 57    
Maximum Humidity 79    
Minimum Humidity 37    
Precipitation  
Precipitation 0.00 in 0.10 in 0.93 in (1979)
Month to date precipitation 0.96  
Year to date precipitation 34.44  
Snow  
Snow 0.00 in 0.10 in - ()
Month to date snowfall 0.5  
Since 1 July snowfall 0.9  
Since 1 September snowfall 0.9  
Snow Depth -    
Sea Level Pressure  
Sea Level Pressure 30.06 in    
Wind  
Wind Speed 9 mph (SSW)    
Max Wind Speed 23 mph    
Max Gust Speed 34 mph    
Visibility 10 miles    
Events      
T = Trace of Precipitation, MM = Missing Value Source: NWS Daily Summary

Daily Weather History Graph

Daily Weather History Graph

Search for Another Location

Airport:

Trip Planner

Search our weather history database for the weather conditions in past years. The results will help you decide how hot, cold, wet, or windy it might be!

Date:

Astronomy

Nov. 09, 2013 Rise Set
Actual Time 7:06 AM EST 5:12 PM EST
Civil Twilight 6:37 AM EST 5:41 PM EST
Nautical Twilight 6:04 AM EST 6:14 PM EST
Astronomical Twilight 5:32 AM EST 6:46 PM EST
Moon 12:42 PM EST (11/9) 11:41 PM EST (11/9)
Length of Visible Light 11h 04m
Length of Day
10h 05m
Waxing Crescent, 44% of the Moon is Illuminated
Nov 9
Waxing Crescent
Nov 10
First Quarter
Nov 17
Full
Nov 25
Last Quarter
Dec 2
New

Hourly Weather History & Observations

Time (EST) Temp. Windchill Dew Point Humidity Pressure Visibility Wind Dir Wind Speed Gust Speed Precip Events Conditions
12:54 AM 30.9 °F - 25.0 °F 79% 30.27 in 10.0 mi Calm Calm - N/A   Partly Cloudy
1:54 AM 30.0 °F - 24.1 °F 79% 30.25 in 10.0 mi Calm Calm - N/A   Partly Cloudy
2:54 AM 33.1 °F 27.7 °F 26.1 °F 75% 30.24 in 10.0 mi South 5.8 mph - N/A   Clear
3:54 AM 33.1 °F 27.7 °F 26.1 °F 75% 30.23 in 10.0 mi South 5.8 mph - N/A   Clear
4:54 AM 34.0 °F 27.2 °F 27.0 °F 75% 30.21 in 10.0 mi South 8.1 mph - N/A   Clear
5:54 AM 35.1 °F 27.4 °F 27.0 °F 72% 30.19 in 10.0 mi South 10.4 mph - N/A   Clear
6:54 AM 36.0 °F 28.0 °F 27.0 °F 70% 30.18 in 10.0 mi South 11.5 mph - N/A   Clear
7:54 AM 37.0 °F 28.1 °F 27.0 °F 67% 30.16 in 10.0 mi South 15.0 mph - N/A   Partly Cloudy
8:54 AM 39.0 °F 31.0 °F 27.0 °F 62% 30.15 in 10.0 mi SSW 13.8 mph 24.2 mph N/A   Partly Cloudy
9:54 AM 41.0 °F 33.9 °F 28.0 °F 60% 30.12 in 10.0 mi South 12.7 mph - N/A   Partly Cloudy
10:54 AM 46.9 °F - 28.9 °F 50% 30.06 in 10.0 mi SSW 16.1 mph 24.2 mph N/A   Clear
11:54 AM 50.0 °F - 28.9 °F 44% 30.02 in 10.0 mi SSW 15.0 mph 26.5 mph N/A   Clear
12:54 PM 53.1 °F - 28.9 °F 40% 29.96 in 10.0 mi SSW 23.0 mph 33.4 mph N/A   Clear
1:54 PM 55.9 °F - 30.0 °F 37% 29.92 in 10.0 mi SW 19.6 mph 33.4 mph N/A   Clear
2:54 PM 57.0 °F - 30.9 °F 37% 29.92 in 10.0 mi SW 19.6 mph 34.5 mph N/A   Clear
3:54 PM 57.0 °F - 32.0 °F 39% 29.92 in 10.0 mi SW 19.6 mph 29.9 mph N/A   Partly Cloudy
4:54 PM 55.0 °F - 33.1 °F 43% 29.93 in 10.0 mi SW 16.1 mph 23.0 mph N/A   Clear
5:54 PM 53.1 °F - 33.1 °F 47% 29.95 in 10.0 mi SW 10.4 mph - N/A   Scattered Clouds
6:54 PM 53.1 °F - 34.0 °F 48% 29.96 in 10.0 mi SW 9.2 mph - N/A   Overcast
7:54 PM 53.1 °F - 34.0 °F 48% 29.96 in 10.0 mi SW 12.7 mph - N/A   Overcast
8:54 PM 53.1 °F - 34.0 °F 48% 29.95 in 10.0 mi SW 12.7 mph - N/A   Overcast
9:54 PM 53.1 °F - 34.0 °F 48% 29.94 in 10.0 mi SW 12.7 mph 19.6 mph N/A   Overcast
10:54 PM 52.0 °F - 36.0 °F 54% 29.94 in 10.0 mi SW 11.5 mph - N/A   Overcast
11:54 PM 51.1 °F - 37.9 °F 61% 29.95 in 10.0 mi WSW 12.7 mph 20.7 mph N/A   Mostly Cloudy